This demonstration page uses our WeatherBlox Daily Observations layout. Learn more.

Left ArrowRight Arrow

34.74481, -87.66753

Hourly Observations for May 8, 2019

Temp ( °F °C ) Dew Point ( °F °C ) Humidity (%) Winds ( mph kmh ) Pressure ( in mb ) Visibility ( mi km ) Precip ( " mm )
12:53 am 00:53 Clear 65 18.3 62 16.7 90 90 Calm 30.04 1017 10 16 0.00 0.00
1:53 am 01:53 Clear 63 17.2 60 15.6 90 90 Calm 30.02 1017 10 16 0.00 0.00
2:53 am 02:53 Clear 63 17.2 61 16.1 93 93 E 3 6 30.00 1016 10 16 0.00 0.00
3:53 am 03:53 Clear 63 17.2 60 15.6 90 90 Calm 29.99 1016 10 16 0.00 0.00
4:53 am 04:53 Clear 61 16.1 58 14.4 90 90 Calm 30.00 1016 10 16 0.00 0.00
5:53 am 05:53 Clear 61 16.1 59 15 93 93 E 6 9 30.01 1016 10 16 0.00 0.00
6:53 am 06:53 Sunny 63 17.2 59 15 87 87 Calm 30.02 1017 10 16 0.00 0.00
7:53 am 07:53 Sunny 68 20 60 15.6 76 76 ESE 5 7 30.01 1016 10 16 0.00 0.00
8:53 am 08:53 Sunny 74 23.3 61 16.1 64 64 SE 8 13 30.00 1016 10 16 0.00 0.00
9:53 am 09:53 Sunny 79 26.1 62 16.7 56 56 SSE 12 19 30.00 1016 10 16 0.00 0.00
10:53 am 10:53 Sunny 82 27.8 63 17.2 53 53 SSE 8 13 29.98 1015 10 16 0.00 0.00
11:53 am 11:53 Sunny 85 29.4 61 16.1 45 45 S 9 15 29.96 1015 10 16 0.00 0.00
12:53 pm 12:53 Sunny 87 30.6 59 15 39 39 S 15 24 29.93 1014 10 16 0.00 0.00
1:53 pm 13:53 Sunny 88 31.1 60 15.6 39 39 SSE 16 26 29.92 1013 10 16 0.00 0.00
2:53 pm 14:53 Mostly Cloudy 87 30.6 61 16.1 42 42 S 13 20 29.91 1013 10 16 0.00 0.00
3:53 pm 15:53 Sunny 88 31.1 61 16.1 40 40 S 16 26 29.90 1012 10 16 0.00 0.00
4:53 pm 16:53 Mostly Sunny 87 30.6 61 16.1 42 42 S 13 20 29.89 1012 10 16 0.00 0.00
5:53 pm 17:53 Sunny 86 30 61 16.1 43 43 S 12 19 29.87 1012 10 16 0.00 0.00
6:53 pm 18:53 Sunny 83 28.3 60 15.6 46 46 S 9 15 29.87 1012 10 16 0.00 0.00
7:53 pm 19:53 Clear 79 26.1 62 16.7 56 56 S 6 9 29.88 1012 10 16 0.00 0.00
8:53 pm 20:53 Clear 74 23.3 62 16.7 67 67 SE 5 7 29.88 1012 10 16 0.00 0.00
9:53 pm 21:53 Clear 75 23.9 63 17.2 66 66 SSE 8 13 29.88 1012 10 16 0.00 0.00
10:53 pm 22:53 Clear 75 23.9 63 17.2 66 66 SSE 8 13 29.89 1012 10 16 0.00 0.00
11:53 pm 23:53 Partly Cloudy 76 24.4 64 17.8 67 67 S 10 17 29.90 1013 10 16 0.00 0.00

Powered by AerisWeather